Helicity
50 50 50 45 36 32 36 29 25 17 -1 17 16 7 0 3 0 15 27 55 21 34 96 106 113 74 55 42 29 6 13 -12 -10 -9 12 60 22 -11 16 19 38 26 22 101 41
42 46 45 42 44 37 28 23 22 28 16 7 0 2 -3 4 6 50 91 19 21 64 135 133 116 129 105 56 45 27 15 -14 -34 -36 7 -18 91 52 19 95 50 10 131 200 101
41 40 38 36 39 37 27 23 15 24 28 9 13 -3 12 8 15 2 45 76 66 79 89 111 102 146 110 85 40 20 10 6 -55 -24 23 -47 -17 -8 47 100 70 159 271 258 151
46 54 44 43 38 33 37 26 11 4 2 -12 -8 10 26 16 62 44 69 54 119 94 156 139 110 129 109 51 30 18 -9 68 56 83 39 29 -26 -43 77 19 146 240 361 384 199
53 74 81 67 57 53 51 18 10 -9 -27 -29 -23 0 33 53 41 80 23 21 144 158 171 203 164 178 88 53 64 -24 19 8 62 107 93 83 72 53 54 19 124 301 335 344 204
70 91 128 130 95 68 65 20 -3 -22 -40 -13 -14 8 41 69 46 115 21 69 161 173 137 205 105 119 75 42 13 3 15 24 41 74 62 59 -3 36 9 111 179 320 289 226 166
82 99 110 132 101 86 60 20 -11 -28 21 19 -5 -1 70 86 87 81 46 54 115 128 148 132 94 98 60 78 23 24 64 28 14 32 83 -20 -15 10 96 127 191 248 241 158 131
55 118 108 115 88 70 34 6 -6 -17 24 2 8 16 31 73 177 97 46 60 59 87 128 89 126 112 93 149 79 36 71 24 77 68 26 14 17 31 105 197 217 265 198 127 91
51 73 143 109 86 45 12 -7 -12 20 0 -32 36 18 79 46 144 111 71 90 108 111 98 61 121 103 93 149 163 155 59 -1 130 74 92 32 34 -13 63 125 168 243 221 104 62
60 55 152 181 144 58 40 -15 -5 34 8 -22 21 11 30 85 92 156 38 87 151 167 185 175 177 110 146 148 125 153 118 55 67 102 74 71 43 -12 61 120 168 178 165 135 103
82 101 115 150 117 25 12 -31 -6 23 34 19 -27 -15 66 105 110 160 99 123 214 263 255 209 233 127 21 162 173 131 125 93 78 103 115 58 56 21 68 109 135 152 131 134 115
69 85 74 80 25 -36 -40 -37 -46 15 33 57 31 63 81 93 71 329 144 131 231 277 271 286 146 46 111 117 145 182 185 152 46 84 98 86 57 86 156 190 255 235 152 120 98
80 69 48 40 -7 30 24 25 56 56 55 62 54 67 94 74 78 251 220 168 206 228 213 269 172 120 116 138 121 99 126 151 125 159 120 62 78 86 76 122 119 104 140 107 130
98 71 52 34 27 31 42 57 41 23 83 79 85 75 50 105 64 74 188 156 144 149 191 159 101 102 158 109 161 116 67 83 120 146 152 132 34 109 97 114 85 122 120 132 111
120 106 75 24 34 52 38 68 23 50 124 104 152 67 66 67 80 190 41 167 202 173 196 195 106 151 121 83 159 72 79 79 80 98 74 169 148 54 67 4 -3 74 103 77 154
139 150 87 71 56 55 47 36 60 124 121 187 142 123 51 74 81 77 39 48 108 175 133 94 109 120 103 61 87 90 102 158 118 103 32 26 158 34 87 50 -8 39 75 44 69
137 142 70 54 51 66 21 75 139 162 179 176 120 68 9 4 21 58 -23 -3 38 182 213 213 96 126 148 125 74 122 127 195 172 134 12 -4 77 115 11 30 68 54 180 125 122
121 41 118 77 108 23 46 129 139 174 182 148 102 33 23 -9 -46 -11 31 27 62 -13 132 156 91 134 162 97 138 158 159 277 247 198 52 18 97 111 -85 8 -5 88 191 140 132
65 52 129 94 38 37 92 150 158 181 147 141 91 117 88 35 8 29 -4 22 106 68 39 126 69 219 158 159 130 178 170 179 192 145 83 103 87 147 28 26 33 41 100 151 179
74 50 85 31 14 83 114 113 159 164 157 151 122 123 66 41 51 53 44 101 78 131 36 30 6 126 241 144 64 129 134 204 210 138 111 126 155 93 88 56 30 17 68 131 185
61 62 41 50 54 142 121 116 167 160 133 154 105 82 55 41 22 23 54 89 107 112 114 55 -30 176 225 174 128 155 175 180 159 181 136 76 98 145 69 64 16 19 67 120 200
38 31 48 53 97 107 138 125 131 147 136 140 115 67 78 59 42 37 30 71 43 54 114 95 41 55 129 232 235 143 180 181 185 199 159 38 68 71 133 73 88 -7 21 40 138
41 40 44 58 131 92 84 95 135 171 195 190 138 106 104 72 81 46 74 72 55 30 74 42 67 67 133 138 171 215 203 170 186 168 85 105 63 -13 -25 138 131 69 29 62 50
53 50 43 72 64 82 61 78 125 160 159 162 136 175 141 120 95 94 84 81 72 15 -10 16 140 99 156 312 255 296 410 234 158 171 137 101 37 67 37 -5 117 89 94 84 65
62 73 59 108 119 130 81 82 91 108 127 135 171 188 171 129 132 121 91 142 128 24 30 -28 90 81 74 223 249 239 367 387 172 176 88 90 27 63 63 27 -8 37 95 33 48
89 97 90 95 115 144 122 104 95 76 84 59 82 74 125 104 117 129 152 147 106 59 12 10 24 64 4 55 179 241 353 352 283 233 115 143 23 21 34 84 87 47 26 16 -6
94 77 81 74 97 125 132 124 131 84 47 36 18 64 50 42 74 96 148 81 115 22 8 -9 -8 51 38 63 149 150 223 216 137 197 194 101 12 67 -13 48 74 78 -15 -29 10
Wind_Speed
62 62 63 63 63 62 60 58 56 55 53 50 51 54 53 51 50 35 46 34 13 4 10 24 3 5 10 17 28 24 26 28 22 14 24 48 48 37 35 17 14 14 23 45 65
66 67 67 67 67 66 64 61 61 59 56 56 54 54 53 49 45 37 38 31 16 10 18 23 9 6 19 28 33 22 29 27 17 29 14 25 49 26 13 30 18 12 24 56 63
70 71 71 71 70 70 69 67 65 65 65 64 60 54 49 41 46 34 43 24 19 13 15 20 18 5 22 21 33 30 25 16 25 23 10 25 14 18 22 40 32 34 45 58 65
72 72 73 73 72 72 71 70 69 70 70 64 55 46 41 35 36 34 45 13 24 12 11 15 26 8 26 25 29 34 37 38 33 49 31 33 20 17 28 24 32 42 53 61 67
73 73 72 73 73 72 70 70 70 70 67 57 47 41 36 38 38 49 35 11 12 15 16 12 25 31 10 16 23 49 43 42 51 52 48 44 43 6 19 19 29 42 57 65 66
71 72 71 73 73 72 69 70 71 70 64 45 40 37 36 41 31 48 21 7 7 13 15 19 21 33 20 24 9 30 62 60 53 53 50 47 25 10 15 16 30 47 62 66 64
77 78 78 79 80 76 72 73 73 65 52 38 39 38 38 40 40 46 21 17 15 15 16 30 31 27 34 37 41 57 54 49 53 47 45 18 10 24 18 24 34 51 63 63 63
84 84 84 84 84 80 76 76 70 49 43 41 38 41 38 36 43 35 28 25 20 25 32 35 35 34 36 40 33 36 39 48 42 39 33 5 22 29 18 24 30 44 56 59 62
88 89 89 89 87 80 77 76 53 39 41 37 46 41 43 43 44 39 43 33 18 23 33 30 38 38 50 43 41 34 34 33 47 40 31 21 37 5 13 10 23 34 48 51 56
90 92 93 90 86 79 78 55 44 41 45 38 45 44 49 57 53 48 39 22 31 26 37 37 41 52 47 41 35 37 34 39 43 41 28 40 48 2 10 13 24 25 37 47 51
91 92 93 89 81 76 68 51 57 46 51 49 51 45 58 60 38 38 35 24 30 33 45 44 50 45 43 50 57 50 54 60 56 44 41 47 49 16 10 8 14 22 32 43 49
94 95 96 90 76 66 58 53 46 48 53 46 43 48 54 50 45 44 39 33 42 55 46 55 72 56 54 55 64 68 61 61 65 49 49 56 58 39 18 21 22 23 25 37 35
96 96 95 82 64 52 52 50 46 41 49 48 43 53 58 47 43 51 47 43 50 61 60 72 62 59 57 58 61 78 76 66 57 53 61 57 71 53 45 35 26 20 22 25 46
97 98 92 76 41 50 48 48 57 26 55 51 51 51 58 48 43 48 54 46 52 68 64 78 75 57 63 70 61 77 86 84 69 58 65 58 76 65 48 28 33 26 29 27 40
98 96 85 50 43 48 51 67 41 30 70 46 50 47 56 46 54 57 50 47 62 67 62 80 69 82 67 69 59 77 68 81 82 71 70 69 71 71 48 33 41 39 33 32 38
98 93 74 46 43 49 63 60 30 45 63 48 48 57 58 53 54 61 52 44 51 68 72 82 70 71 89 72 61 62 50 63 68 71 104 82 75 83 66 47 47 29 32 37 33
97 88 53 42 57 62 61 41 42 47 45 48 55 55 53 57 57 60 57 54 58 73 82 82 94 78 73 73 70 62 65 67 77 88 108 69 78 88 85 76 59 49 39 45 39
96 76 38 44 60 55 51 39 43 40 43 43 52 50 51 55 53 58 58 60 51 51 72 87 103 89 71 88 73 73 71 73 85 84 98 67 89 73 101 78 81 79 31 56 50
89 56 39 59 63 46 50 45 41 41 40 45 47 48 47 50 53 55 55 59 53 53 71 78 93 72 82 78 72 75 89 73 71 61 83 86 80 72 73 92 90 82 48 36 38
70 51 46 72 55 44 48 42 36 37 41 41 51 45 54 56 53 51 49 47 51 53 55 65 91 74 76 73 91 84 65 82 85 95 95 79 83 82 77 78 87 90 70 55 29
54 47 57 70 43 40 42 35 38 40 42 40 43 44 44 47 46 45 46 45 47 54 58 62 73 86 74 79 96 87 90 81 82 92 92 96 86 62 71 81 97 91 81 50 26
56 46 65 63 46 45 43 46 45 43 42 42 39 35 39 38 41 43 45 46 46 51 68 65 74 92 93 75 71 78 78 88 94 96 100 88 85 43 72 74 79 98 96 87 31
55 39 52 55 47 52 51 49 43 45 46 41 40 34 33 35 42 39 42 41 44 49 56 60 75 91 88 78 61 75 74 70 81 78 115 105 86 77 65 74 78 88 91 86 88
50 53 52 52 46 53 55 46 44 47 35 39 36 33 33 33 33 38 40 38 34 44 49 56 73 87 93 80 73 83 86 75 78 98 91 96 93 73 78 69 65 72 76 76 78
51 47 44 48 48 52 47 43 40 39 37 37 32 31 31 36 35 37 36 30 39 52 50 56 77 83 91 90 86 88 96 93 91 98 94 85 89 76 81 84 71 69 76 83 90
49 44 42 36 36 41 42 38 34 33 32 32 25 23 33 31 36 38 27 36 52 54 59 56 71 71 89 82 88 99 94 92 94 100 99 94 82 57 61 58 60 65 73 82 89
39 34 37 36 37 37 36 33 28 28 23 12 33 25 32 40 45 47 52 48 41 63 65 63 62 67 82 67 75 92 94 81 64 61 79 93 67 64 51 45 48 55 59 73 84
Wind_Direction
328 326 323 320 317 312 307 302 298 294 288 281 281 291 299 294 296 324 223 202 154 29 105 122 291 87 91 290 279 301 315 315 58 303 235 177 170 228 221 18 314 66 56 123 132
332 329 326 323 320 316 310 304 301 297 290 287 283 289 306 312 315 243 206 167 140 143 140 148 185 180 273 270 267 301 310 300 36 82 15 247 169 84 62 99 319 20 71 126 133
334 331 329 326 323 320 316 312 306 304 301 298 302 306 314 332 316 320 293 152 145 153 140 136 137 222 269 281 265 280 300 306 86 68 317 42 73 35 63 136 116 112 118 132 138
333 329 328 326 323 319 316 314 312 312 313 316 314 320 328 334 320 322 301 80 145 157 158 138 141 206 262 267 265 272 259 242 230 168 234 202 5 46 105 261 118 127 134 137 143
332 327 324 323 319 316 313 315 315 316 320 328 334 331 329 317 308 301 324 32 144 162 174 213 157 248 228 262 268 250 247 248 232 215 230 233 232 42 108 297 77 118 136 143 144
327 325 321 319 317 313 309 313 318 317 321 341 348 340 323 307 323 309 339 17 202 189 183 236 245 251 254 276 204 278 246 244 247 230 236 239 277 332 303 59 87 123 140 145 147
328 326 324 322 321 315 311 317 323 331 348 0 356 342 320 305 310 304 332 301 263 223 212 247 267 246 265 260 264 244 245 259 250 251 240 97 48 270 88 88 104 130 144 147 151
333 328 326 324 323 320 317 325 330 349 357 360 1 345 319 324 302 319 317 302 272 257 267 258 263 255 263 263 271 262 263 253 260 253 269 47 285 258 98 105 110 128 144 151 156
335 332 327 328 326 322 320 326 349 357 358 359 346 337 319 323 310 311 300 281 272 256 263 271 256 263 255 258 259 260 255 252 251 254 266 258 256 317 106 104 114 126 141 150 157
334 334 330 326 325 326 326 350 0 357 351 344 346 323 328 316 306 302 311 278 270 247 255 264 257 254 258 243 228 247 249 255 250 256 257 256 252 216 151 136 133 134 143 151 158
329 329 328 325 324 332 343 349 339 337 341 334 327 329 318 320 328 315 312 275 269 252 247 255 252 233 207 249 250 254 253 248 249 256 259 258 255 251 206 201 157 153 153 157 162
333 336 333 331 336 348 359 353 354 338 325 335 332 327 320 324 309 319 315 274 260 254 250 253 251 252 254 252 247 249 250 248 250 258 258 256 253 258 226 199 184 174 171 164 158
339 341 340 340 345 5 2 0 1 354 327 326 333 327 324 320 312 309 310 282 265 255 249 250 259 253 251 250 247 246 246 246 251 260 256 257 251 256 258 259 242 225 203 180 170
340 341 343 344 5 4 3 2 347 11 321 320 326 330 326 317 305 314 312 283 269 259 255 255 252 258 247 248 247 250 243 244 250 258 253 254 251 251 257 237 195 215 200 205 177
339 341 342 6 2 359 353 338 354 357 306 328 328 339 330 319 306 304 319 290 268 260 255 251 252 247 251 249 247 251 251 246 247 254 257 252 252 251 255 235 191 191 202 208 184
335 336 345 7 4 355 333 334 359 324 305 322 330 323 324 321 308 303 303 305 282 268 259 255 256 254 249 252 251 250 258 247 249 251 247 248 250 247 248 247 194 212 227 234 224
332 327 354 5 348 338 333 347 332 316 328 321 321 325 323 316 313 306 295 289 279 265 256 257 249 253 253 249 244 242 240 247 244 243 244 251 250 245 238 243 249 185 199 192 202
328 338 2 0 343 338 344 343 323 328 324 332 329 326 323 323 316 312 296 281 284 276 262 254 245 244 248 242 244 238 236 239 243 245 246 251 248 251 218 240 232 238 230 246 244
334 358 4 345 334 348 344 331 327 329 332 329 330 324 323 324 319 311 299 285 282 278 261 258 249 254 246 246 242 241 237 239 250 258 251 249 253 257 242 234 234 236 254 246 236
352 0 356 327 335 347 340 332 336 339 336 333 324 324 317 315 316 313 301 299 288 283 272 261 253 251 249 248 242 241 240 235 240 243 245 250 248 248 243 240 233 234 247 252 230
5 1 347 324 4 352 338 342 338 338 337 332 325 322 319 318 317 310 302 297 296 290 276 264 253 247 249 240 234 236 238 240 242 244 245 247 250 250 244 239 232 231 239 252 221
4 4 345 351 357 354 345 338 337 335 337 331 328 324 322 322 315 308 297 297 298 296 269 263 253 246 241 241 245 241 240 238 239 239 244 248 248 259 244 242 237 228 229 212 200
10 22 7 6 1 351 344 337 334 334 331 331 327 326 330 324 313 306 305 303 303 293 270 260 249 244 239 235 241 236 238 244 245 246 239 241 246 246 254 245 243 236 230 239 236
17 6 9 16 15 358 350 351 348 343 345 339 330 328 327 321 316 314 306 315 303 285 272 265 249 241 235 231 239 237 238 243 244 239 242 243 243 248 246 248 249 241 240 242 241
18 17 22 14 17 10 7 4 2 358 350 347 341 334 328 315 313 308 310 314 298 275 268 261 249 247 243 244 243 242 239 240 242 241 242 245 241 245 241 242 250 250 249 248 244
19 27 29 37 32 24 24 22 17 11 4 353 336 318 322 312 306 311 311 300 286 269 262 261 250 252 240 242 242 239 239 240 242 241 243 243 242 256 252 254 258 259 258 253 250
41 51 44 41 40 37 34 30 22 12 20 8 354 347 335 324 314 296 290 292 293 264 255 253 254 245 233 242 239 233 232 234 238 247 242 237 244 253 250 257 264 266 267 264 257